Weather History for RJOO - July, 2013

Change the Weather History Date:

Thursday, July 4, 2013

  Actual Average Record
Temperature  
Mean Temperature 76 °F -  
Max Temperature 80 °F 87 °F 96 °F (2004)
Min Temperature 73 °F 72 °F 68 °F (1996)
Cooling Degree Days 12    
Growing Degree Days 26 (Base 50)    
Moisture  
Dew Point 72 °F    
Average Humidity 83    
Maximum Humidity 89    
Minimum Humidity 74    
Precipitation  
Precipitation 0.00 in - - ()
Sea Level Pressure  
Sea Level Pressure 29.67 in    
Wind  
Wind Speed 4 mph ()    
Max Wind Speed 10 mph    
Max Gust Speed 21 mph    
Visibility 6.1 miles    
Events Rain , Thunderstorm    
Averages and records for this station are not official NWS values.
T = Trace of Precipitation, MM = Missing Value Source: Averaged Metar Reports

Daily Weather History Graph

Daily Weather History Graph

Search for Another Location

Airport or City:

Trip Planner

Search our weather history database for the weather conditions in past years. The results will help you decide how hot, cold, wet, or windy it might be!

Date:

Astronomy

Jul. 04, 2013 Rise Set
Actual Time 4:49 AM JST 7:15 PM JST
Civil Twilight 4:20 AM JST 7:44 PM JST
Nautical Twilight 3:44 AM JST 8:20 PM JST
Astronomical Twilight 3:04 AM JST 9:00 PM JST
Moon 1:37 AM JST 3:49 PM JST
Length of Visible Light 15h 24m
Length of Day
14h 25m
Waning Crescent, 15% of the Moon is Illuminated
Jul 4
Waning Crescent
Jul 8
New
Jul 16
First Quarter
Jul 23
Full
Jul 30
Last Quarter

Hourly Weather History & Observations

Time (JST) Temp. Heat Index Dew Point Humidity Pressure Visibility Wind Dir Wind Speed Gust Speed Precip Events Conditions
5:00 AM 73.4 °F - 69.8 °F 88% 29.65 in 6.2 mi Variable 1.2 mph - N/A Rain Light Rain Showers
6:00 AM 75.2 °F - 71.6 °F 89% 29.65 in 6.2 mi Variable 2.3 mph - N/A   Mostly Cloudy
7:00 AM 75.2 °F - 71.6 °F 89% 29.65 in 6.2 mi East 4.6 mph - N/A   Mostly Cloudy
8:00 AM 77.0 °F - 71.6 °F 83% 29.68 in 6.2 mi Variable 2.3 mph - N/A   Mostly Cloudy
8:47 AM 80.6 °F 84.6 °F 71.6 °F 74% 29.68 in 6.2 mi SSW 4.6 mph - N/A Rain Rain Showers
9:00 AM 78.8 °F - 71.6 °F 78% 29.68 in 6.2 mi SW 5.8 mph - N/A Rain Rain Showers
9:39 AM 77.0 °F - 73.4 °F 89% 29.68 in 6.2 mi SW 4.6 mph - N/A Rain Light Rain Showers
10:00 AM 78.8 °F - 73.4 °F 83% 29.68 in 6.2 mi SW 5.8 mph - N/A   Mostly Cloudy
11:00 AM 78.8 °F - 73.4 °F 83% 29.68 in 6.2 mi SW 5.8 mph - N/A   Mostly Cloudy
12:00 PM 80.6 °F 84.6 °F 71.6 °F 74% 29.68 in 6.2 mi SW 6.9 mph - N/A Rain Rain Showers
12:19 PM 78.8 °F - 71.6 °F 78% 29.68 in 6.2 mi WSW 8.1 mph - N/A Rain , Thunderstorm Thunderstorms and Rain
12:46 PM 78.8 °F - 73.4 °F 83% 29.68 in 6.2 mi WSW 8.1 mph - N/A Rain , Thunderstorm Heavy Thunderstorms and Rain
1:00 PM 77.0 °F - 71.6 °F 83% 29.68 in 5.0 mi SW 10.4 mph - N/A Rain , Thunderstorm Heavy Thunderstorms and Rain
1:10 PM 77.0 °F - 73.4 °F 89% 29.65 in 6.2 mi South 9.2 mph 20.7 mph N/A Rain Rain Showers
1:23 PM 75.2 °F - 71.6 °F 89% 29.65 in 6.2 mi SW 8.1 mph - N/A Rain Light Rain Showers
2:00 PM 77.0 °F - 73.4 °F 89% 29.68 in 6.2 mi WSW 3.5 mph - N/A   Mostly Cloudy
3:00 PM 78.8 °F - 73.4 °F 83% 29.68 in 6.2 mi WSW 4.6 mph - N/A Rain Light Rain Showers
4:00 PM 80.6 °F 85.4 °F 73.4 °F 79% 29.65 in 6.2 mi Variable 2.3 mph - N/A Rain Light Rain Showers
5:00 PM 80.6 °F 84.6 °F 71.6 °F 74% 29.65 in 6.2 mi SSW 3.5 mph - N/A   Mostly Cloudy
6:00 PM 80.6 °F 85.4 °F 73.4 °F 79% 29.65 in 6.2 mi Variable 2.3 mph - N/A   Mostly Cloudy
7:00 PM 78.8 °F - 73.4 °F 83% 29.68 in 6.2 mi Variable 1.2 mph - N/A Rain Light Rain Showers
8:00 PM 78.8 °F - 73.4 °F 83% 29.68 in 6.2 mi ENE 4.6 mph - N/A Rain Light Rain Showers